Wetbulb
56.94 56.30 55.86 55.76 55.40 54.94 54.99 54.55 54.08 53.80 53.95 54.31 54.78 54.90 54.95 55.14 53.67 45.17 43.75 50.43 52.56 54.86 53.05 47.83 47.92 47.33 47.31 44.83 45.69 45.20 37.54 34.12 33.39 33.54 35.49 41.54 39.76 43.96 45.00 41.87 43.64 45.04 43.45 46.06 48.25
56.57 56.02 55.62 55.23 54.89 54.52 54.25 54.61 54.14 53.62 53.71 53.54 53.92 54.79 55.18 53.81 48.39 42.27 50.78 54.65 54.43 52.47 47.62 45.60 44.48 45.93 44.15 42.87 43.98 40.46 36.33 34.39 38.16 39.08 37.98 40.13 39.93 39.88 38.69 39.44 39.55 39.72 43.19 45.08 47.13
56.31 56.00 55.39 55.13 54.67 54.31 54.06 54.11 54.29 54.10 53.39 53.61 54.40 55.01 53.82 51.49 44.21 40.63 52.45 53.32 53.13 50.11 47.52 47.74 46.77 44.86 41.43 42.58 41.30 39.85 35.16 37.93 38.92 40.71 41.10 39.94 39.60 40.95 37.61 34.65 35.86 35.32 38.10 42.00 45.81
56.18 55.74 55.15 54.92 54.43 54.33 54.17 54.07 54.22 54.10 53.57 53.60 53.89 54.47 50.24 46.47 35.84 42.70 51.58 51.37 51.39 49.00 47.61 46.06 44.65 41.79 40.08 37.81 41.06 36.07 39.09 39.24 39.80 40.93 40.85 39.03 39.74 37.60 38.29 35.00 38.42 39.26 39.06 43.00 45.49
56.05 55.45 54.78 54.63 54.04 54.15 54.14 54.22 54.14 54.09 53.88 53.47 53.34 53.80 46.56 40.54 39.05 45.10 49.67 47.51 47.08 47.46 45.00 44.00 41.90 40.77 37.94 39.07 39.77 37.67 38.75 39.85 40.92 41.11 40.75 40.53 37.39 36.52 35.93 37.70 38.84 39.33 38.39 39.71 41.09
55.66 55.12 54.81 54.29 53.60 53.85 54.04 54.05 54.08 52.21 52.46 52.80 53.28 53.02 43.36 36.86 44.13 46.04 45.76 45.49 45.59 46.41 45.25 44.78 42.42 42.41 39.56 38.66 37.62 39.42 38.96 39.67 39.98 40.44 41.60 38.68 37.75 37.15 35.92 37.55 37.10 37.20 35.99 37.34 38.09
55.47 55.04 54.74 54.09 53.26 53.38 53.72 53.49 54.04 53.54 53.04 52.86 53.30 46.93 41.92 38.07 44.50 46.21 46.04 44.42 45.13 45.48 43.81 45.65 45.67 41.73 40.68 38.07 40.99 39.18 35.97 39.06 39.29 39.61 39.29 40.41 34.56 32.78 36.11 36.37 34.95 34.92 36.02 36.03 36.62
55.14 54.79 54.34 53.59 53.17 53.02 53.08 53.10 53.47 53.43 53.23 52.57 49.99 46.45 39.02 43.74 46.07 44.53 46.26 45.78 46.78 46.31 45.64 45.63 46.10 42.24 40.58 42.19 39.98 36.78 36.47 32.86 37.98 38.46 38.68 38.47 28.64 34.09 36.48 34.00 32.97 33.33 34.11 34.83 34.89
54.93 54.49 53.92 52.90 52.55 52.65 52.00 52.33 51.30 51.70 50.81 49.71 46.58 43.13 37.28 45.16 41.06 43.85 44.68 42.21 44.74 46.13 46.32 45.79 44.15 39.97 40.81 36.73 36.07 36.14 30.36 32.17 34.23 37.79 36.22 34.91 29.47 34.54 36.70 33.50 31.94 32.07 33.04 33.33 33.20
54.38 54.20 53.32 52.59 51.81 51.88 50.62 51.04 49.01 47.39 45.16 44.21 43.13 40.10 39.73 36.95 40.09 42.55 44.15 43.28 42.10 42.93 42.64 41.85 41.13 37.32 36.19 33.42 25.75 27.27 28.93 31.59 32.33 35.98 35.77 32.90 31.30 33.74 34.12 32.78 31.53 31.82 32.21 32.06 31.07
53.86 53.54 52.40 51.79 51.47 49.83 47.05 46.88 41.30 41.06 41.59 38.01 37.82 37.21 37.41 40.15 41.39 41.11 42.51 41.36 42.36 40.91 35.84 38.30 34.60 29.40 31.89 33.40 32.72 32.74 31.59 31.43 34.76 35.82 33.36 32.79 32.37 31.00 32.78 31.68 31.50 31.21 31.34 30.79 30.08
53.54 52.83 51.42 50.75 49.27 47.66 47.13 42.45 41.51 43.18 35.56 38.54 38.03 37.83 38.19 39.05 36.42 38.91 42.56 38.17 38.55 34.70 38.04 35.88 31.09 33.51 35.70 34.74 32.76 33.56 31.84 31.60 34.37 35.11 33.94 33.83 32.13 34.50 32.72 31.23 31.70 30.86 30.41 30.39 29.65
52.68 51.49 50.12 49.46 48.04 47.81 44.50 42.80 47.10 45.06 38.21 35.64 37.44 36.63 35.68 38.36 34.27 34.79 38.28 36.76 34.86 34.03 33.81 31.13 32.11 34.86 34.53 33.39 29.79 31.43 29.56 28.32 28.42 33.94 36.13 33.97 30.27 29.79 32.58 32.28 32.99 32.18 31.05 30.55 29.64
51.71 49.57 48.46 49.40 45.24 43.72 42.24 45.01 46.93 46.96 38.47 33.38 34.01 35.56 36.68 36.74 32.99 37.85 38.33 35.08 34.07 31.38 32.58 32.12 34.50 32.39 32.64 30.77 30.41 27.15 32.14 30.46 30.17 31.23 27.67 33.90 24.26 28.43 28.98 27.97 30.19 30.12 29.47 29.66 29.82
50.48 48.06 47.26 47.84 43.25 40.95 41.46 44.70 45.96 44.56 31.80 33.20 33.43 39.27 36.97 34.16 33.23 34.62 39.56 37.28 30.79 30.34 32.58 29.38 29.82 29.09 29.43 28.73 31.94 28.60 32.61 31.03 32.25 30.83 30.74 29.37 25.91 26.76 28.49 24.24 26.62 28.21 28.40 29.50 29.84
48.81 48.02 46.10 44.50 43.70 41.15 43.48 44.02 43.35 38.52 30.60 29.65 33.31 31.90 32.11 33.26 32.75 35.25 35.16 37.13 34.43 31.15 32.51 30.81 34.57 32.56 30.60 33.07 32.66 33.62 32.70 32.30 33.32 31.59 26.16 25.69 25.80 25.20 22.89 23.72 25.20 27.43 27.70 28.67 29.39
47.17 46.18 43.77 42.57 38.40 42.62 42.91 41.81 34.01 28.58 32.48 29.28 29.46 31.28 30.71 28.53 30.14 31.10 27.87 27.49 27.32 28.43 25.96 29.91 29.42 33.12 33.32 29.99 33.58 31.31 28.89 27.04 24.49 24.99 23.07 28.38 27.27 23.99 27.54 27.58 26.84 26.47 26.59 28.64 29.48
46.23 44.56 43.88 42.04 42.28 42.30 41.14 38.81 30.26 32.78 30.31 29.69 30.05 30.22 28.89 27.69 27.56 29.46 29.31 28.60 29.00 26.57 26.98 24.86 25.17 28.85 31.95 28.60 24.85 28.19 27.03 21.13 16.37 19.41 22.81 29.76 22.47 25.80 30.90 30.29 29.58 29.35 27.74 27.89 28.20
46.51 43.12 41.79 42.66 43.12 42.05 40.26 32.16 34.60 30.90 29.90 29.01 28.61 28.21 27.19 27.26 27.16 27.92 27.26 26.25 26.60 27.36 24.82 23.59 24.93 30.44 30.58 31.28 29.95 26.33 23.12 25.50 19.87 23.66 21.61 26.56 28.26 30.10 30.73 27.61 27.53 27.29 26.30 25.86 27.45
43.66 41.76 39.79 42.44 41.97 41.20 35.73 35.22 29.90 29.97 29.62 29.28 27.64 28.54 28.27 26.80 26.47 26.64 25.71 25.69 24.62 27.95 28.34 22.98 23.59 27.16 29.48 32.19 32.20 27.79 28.94 21.78 24.97 17.22 16.97 24.51 23.11 22.64 22.26 22.94 24.79 24.97 24.15 25.44 27.15
44.27 39.88 39.92 42.03 42.91 37.98 33.42 31.85 27.47 29.62 30.26 28.15 28.43 27.09 27.85 25.50 27.17 24.90 24.47 25.35 27.58 26.67 28.74 24.07 22.12 25.67 29.15 25.48 23.21 25.26 22.98 23.89 23.47 22.61 17.74 17.75 22.16 25.67 22.61 24.51 23.88 24.41 25.10 25.64 26.25
42.89 36.64 40.21 42.00 34.89 32.24 30.86 28.87 29.54 27.90 28.49 28.59 29.05 28.51 28.15 26.86 24.47 24.26 24.30 26.13 29.97 29.23 23.25 26.17 24.29 23.30 22.27 26.54 27.44 26.10 22.96 22.86 19.95 19.05 22.80 20.51 21.77 28.12 27.14 27.05 26.28 24.55 25.49 26.35 27.00
37.47 34.05 40.63 40.00 32.63 29.87 26.21 26.24 28.61 26.94 27.78 27.41 27.32 28.80 28.18 26.27 23.83 25.42 25.71 28.82 29.92 28.43 25.58 26.44 22.80 22.61 20.96 22.67 26.20 23.70 24.66 23.49 22.02 21.26 19.95 16.18 22.03 31.43 29.87 26.89 26.97 24.96 25.66 26.15 26.80
37.25 31.69 33.63 35.18 32.96 31.36 26.74 26.56 25.01 28.70 28.10 28.47 27.27 28.33 26.45 24.42 26.01 23.23 24.28 26.29 29.02 29.30 29.53 28.17 21.90 20.20 20.47 20.23 21.21 19.74 21.19 22.23 20.41 18.18 18.11 20.51 21.09 25.58 25.63 24.09 25.33 25.54 25.65 25.65 26.26
41.26 35.15 35.94 29.44 30.76 31.28 32.12 28.55 26.15 23.71 27.90 28.91 25.59 26.79 26.64 21.64 22.11 22.80 25.10 24.48 27.36 27.55 26.42 24.82 20.15 19.34 22.71 22.91 22.10 21.36 20.72 21.14 17.11 20.82 16.20 20.40 18.73 23.00 24.05 24.31 25.63 26.19 25.81 24.74 25.01
36.27 34.50 34.50 31.63 32.86 30.71 31.46 26.79 26.91 29.22 26.30 25.06 25.18 27.30 26.84 25.07 26.94 23.33 24.06 24.38 24.48 24.97 21.50 22.24 21.84 19.91 17.93 21.87 21.69 19.60 22.27 22.76 22.17 21.64 21.41 21.60 20.54 27.20 27.04 27.62 26.31 25.64 24.67 23.68 23.90
38.19 38.75 38.60 31.80 30.82 31.19 28.67 29.68 29.73 29.19 27.35 28.67 28.68 25.91 24.87 24.76 27.84 28.56 28.43 28.59 27.90 23.78 20.39 21.11 21.23 19.03 20.01 19.95 14.64 17.11 19.43 21.55 22.53 22.91 21.92 18.48 22.95 26.12 24.05 24.52 25.10 24.68 24.83 23.66 24.16
MSLP
1020.47 1020.20 1020.01 1019.77 1019.60 1019.34 1019.27 1019.09 1018.81 1018.55 1018.40 1018.12 1017.93 1017.88 1017.71 1017.51 1017.05 1016.19 1016.61 1017.48 1016.76 1016.07 1015.26 1014.19 1013.87 1014.06 1014.00 1013.83 1014.05 1013.96 1012.58 1011.95 1012.52 1012.57 1012.44 1012.54 1012.50 1012.67 1013.26 1012.62 1012.05 1011.81 1011.92 1010.90 1010.49
1020.50 1020.31 1020.09 1019.87 1019.63 1019.39 1019.24 1019.13 1018.93 1018.62 1018.39 1018.16 1017.89 1017.72 1017.56 1017.41 1016.50 1016.21 1017.79 1017.20 1016.62 1016.10 1014.90 1014.55 1014.12 1013.71 1013.49 1013.75 1013.88 1013.67 1012.72 1012.92 1013.30 1013.19 1013.10 1013.10 1013.41 1013.95 1014.25 1013.63 1013.12 1012.98 1012.49 1011.79 1010.58
1020.59 1020.37 1020.13 1019.93 1019.71 1019.45 1019.24 1019.09 1018.94 1018.78 1018.43 1018.22 1018.03 1017.74 1017.50 1017.24 1016.23 1016.67 1017.50 1017.23 1016.79 1016.09 1015.40 1014.56 1014.14 1014.11 1013.56 1013.80 1014.12 1013.81 1013.49 1013.50 1013.35 1013.37 1013.56 1013.32 1013.85 1014.25 1014.90 1014.31 1014.80 1013.88 1013.06 1011.67 1009.85
1020.70 1020.51 1020.23 1020.02 1019.80 1019.47 1019.21 1019.10 1018.93 1018.85 1018.51 1018.24 1018.05 1017.81 1017.53 1016.63 1016.51 1017.02 1017.47 1017.18 1016.83 1015.93 1014.89 1014.45 1013.89 1013.76 1013.66 1014.05 1014.30 1014.38 1013.75 1013.73 1013.68 1013.57 1013.44 1014.13 1015.05 1014.66 1015.00 1015.59 1015.44 1015.08 1014.55 1012.32 1010.15
1020.65 1020.71 1020.38 1020.06 1019.77 1019.54 1019.27 1019.06 1018.89 1018.78 1018.55 1018.25 1018.03 1017.80 1017.43 1016.37 1017.16 1017.52 1017.45 1017.00 1016.29 1015.78 1015.32 1014.76 1014.49 1014.29 1014.15 1014.40 1014.43 1014.18 1013.83 1013.78 1013.54 1013.54 1014.05 1014.55 1014.94 1015.22 1015.53 1015.81 1015.60 1015.28 1014.69 1013.15 1011.98
1020.55 1020.53 1020.44 1020.11 1019.87 1019.55 1019.34 1019.06 1018.87 1018.79 1018.63 1018.39 1018.03 1017.74 1016.89 1016.88 1018.02 1017.63 1017.31 1016.81 1016.41 1015.77 1015.57 1015.38 1015.19 1014.96 1014.68 1014.62 1014.62 1014.45 1014.03 1013.38 1013.53 1013.39 1013.39 1014.23 1014.55 1015.25 1016.11 1016.09 1015.64 1015.47 1014.97 1014.00 1013.17
1020.52 1020.36 1020.28 1020.11 1019.91 1019.55 1019.16 1018.84 1018.72 1018.64 1018.52 1018.33 1018.15 1017.33 1016.44 1017.78 1018.03 1017.72 1017.43 1017.19 1016.80 1016.31 1015.78 1015.91 1015.84 1015.34 1015.14 1014.42 1014.61 1014.40 1013.81 1012.92 1012.88 1013.43 1013.38 1013.94 1015.01 1015.99 1016.60 1016.44 1016.12 1015.62 1015.16 1014.62 1014.09
1020.39 1020.34 1020.20 1020.06 1019.78 1019.54 1019.13 1018.73 1018.59 1018.52 1018.36 1018.29 1018.19 1017.29 1016.98 1017.80 1017.75 1017.76 1017.40 1016.76 1016.74 1016.58 1016.32 1016.15 1016.02 1015.38 1014.82 1014.43 1014.01 1013.61 1013.56 1012.52 1012.59 1013.64 1014.11 1013.93 1015.15 1016.78 1016.75 1016.73 1016.41 1016.07 1015.39 1014.89 1014.37
1020.48 1020.34 1020.24 1019.93 1019.69 1019.52 1019.18 1018.74 1018.47 1018.40 1018.26 1018.01 1017.93 1017.20 1017.10 1018.01 1017.88 1018.06 1018.00 1017.34 1016.69 1016.50 1016.24 1015.94 1015.59 1015.25 1014.54 1013.90 1012.94 1013.41 1013.08 1012.66 1012.42 1013.63 1014.50 1015.00 1015.99 1017.06 1016.92 1017.21 1016.92 1016.68 1016.19 1015.44 1014.50
1020.37 1020.41 1020.33 1019.99 1019.59 1019.46 1019.33 1019.08 1018.42 1018.26 1018.04 1017.58 1017.58 1017.61 1017.74 1018.23 1018.60 1018.37 1018.26 1017.93 1016.82 1016.33 1015.86 1015.57 1014.86 1014.94 1015.30 1015.05 1014.77 1014.54 1014.07 1013.48 1012.58 1013.20 1013.83 1014.79 1015.73 1016.56 1017.37 1017.75 1017.66 1017.53 1016.81 1016.20 1015.47
1020.09 1020.32 1020.25 1020.04 1019.51 1019.40 1019.23 1019.13 1019.15 1018.21 1018.07 1017.94 1018.29 1018.33 1018.62 1018.83 1018.72 1018.40 1018.34 1017.60 1016.55 1015.64 1015.36 1015.90 1015.68 1015.94 1016.12 1016.23 1016.39 1015.46 1014.52 1013.31 1012.85 1013.81 1014.36 1014.70 1015.31 1016.67 1016.96 1017.65 1017.55 1017.45 1017.23 1016.45 1015.76
1020.01 1020.16 1020.10 1019.80 1019.63 1019.46 1019.20 1019.32 1019.85 1019.95 1019.29 1018.98 1018.86 1019.06 1019.48 1019.37 1018.64 1018.82 1018.50 1017.38 1016.39 1016.01 1015.17 1015.70 1016.25 1017.09 1016.61 1016.29 1016.27 1015.23 1014.44 1013.67 1013.33 1013.99 1014.54 1013.94 1014.78 1016.24 1016.37 1017.34 1017.89 1018.05 1017.32 1016.72 1015.30
1019.87 1020.19 1019.92 1019.78 1019.64 1019.55 1019.67 1020.36 1020.51 1020.07 1019.24 1019.37 1019.37 1019.43 1020.05 1019.85 1019.88 1020.03 1019.71 1018.73 1017.74 1016.92 1016.90 1016.91 1017.68 1017.56 1016.67 1016.31 1016.42 1015.79 1015.47 1015.19 1014.85 1014.08 1013.64 1013.80 1014.25 1015.77 1016.21 1017.20 1017.22 1017.73 1018.16 1017.30 1016.80
1019.86 1020.00 1019.97 1019.70 1019.96 1019.93 1020.41 1020.68 1020.49 1020.62 1019.87 1019.49 1019.47 1020.04 1020.16 1020.13 1020.36 1020.98 1020.84 1020.36 1018.80 1018.20 1018.08 1017.96 1018.23 1018.13 1017.27 1016.97 1017.26 1016.21 1016.19 1015.76 1014.88 1014.04 1013.58 1014.10 1014.17 1014.89 1015.91 1016.73 1017.05 1017.74 1018.08 1017.68 1016.90
1019.80 1020.14 1019.96 1019.77 1019.57 1020.51 1021.27 1020.79 1020.59 1020.78 1020.12 1019.57 1019.73 1020.49 1020.32 1020.25 1020.99 1020.91 1021.18 1020.00 1019.92 1019.51 1019.16 1018.92 1018.90 1018.81 1018.04 1018.37 1017.90 1017.03 1016.51 1015.67 1014.88 1014.30 1014.12 1014.11 1015.00 1015.09 1016.24 1016.88 1017.64 1018.51 1019.21 1018.94 1018.27
1020.04 1019.96 1019.94 1019.99 1020.27 1021.36 1021.26 1021.04 1020.86 1020.97 1019.50 1019.40 1019.64 1019.99 1020.00 1020.44 1020.90 1021.15 1021.19 1021.19 1021.46 1020.48 1019.77 1019.71 1019.73 1019.75 1019.56 1018.39 1018.08 1017.89 1016.29 1015.41 1014.70 1014.20 1014.10 1014.77 1015.34 1015.69 1017.37 1019.15 1019.45 1019.93 1019.88 1019.91 1018.85
1020.28 1020.30 1020.23 1020.47 1021.82 1021.74 1021.46 1021.42 1021.44 1020.99 1019.61 1019.69 1019.74 1019.89 1020.17 1020.89 1021.31 1021.61 1022.28 1022.24 1022.31 1021.79 1021.03 1020.31 1020.03 1019.85 1019.88 1018.43 1018.13 1018.20 1016.74 1015.58 1015.00 1014.26 1014.11 1014.79 1014.95 1017.51 1018.67 1019.97 1021.06 1021.04 1020.87 1020.70 1020.04
1019.76 1020.76 1021.51 1021.82 1022.19 1021.93 1021.70 1021.81 1021.31 1020.02 1019.77 1020.11 1020.21 1020.26 1020.35 1021.54 1022.15 1022.16 1022.23 1022.80 1023.59 1023.61 1022.43 1021.59 1020.19 1020.61 1021.01 1020.69 1020.52 1019.73 1019.62 1019.36 1017.87 1016.11 1015.21 1014.91 1016.02 1017.87 1018.98 1020.31 1021.41 1021.78 1022.03 1021.55 1020.79
1019.86 1021.41 1021.79 1022.26 1022.05 1022.00 1021.67 1021.92 1020.84 1020.55 1020.55 1020.44 1020.65 1020.24 1020.86 1021.64 1022.19 1022.43 1023.09 1023.88 1024.57 1024.70 1024.25 1023.57 1022.01 1021.57 1021.82 1021.65 1021.37 1020.89 1021.07 1021.99 1020.54 1018.37 1016.81 1015.54 1016.49 1017.91 1019.18 1020.53 1021.19 1021.74 1022.16 1021.86 1021.47
1020.05 1021.35 1022.28 1022.39 1022.04 1022.20 1021.62 1021.51 1021.46 1021.60 1021.58 1021.20 1020.68 1020.62 1020.62 1021.48 1022.16 1022.63 1023.39 1024.93 1025.28 1025.61 1025.41 1025.16 1023.86 1022.46 1022.26 1021.88 1021.87 1022.39 1022.93 1022.32 1021.28 1019.56 1017.64 1016.31 1017.18 1018.77 1020.19 1021.40 1022.10 1022.14 1022.58 1022.51 1022.06
1019.46 1021.19 1022.56 1022.52 1022.23 1022.25 1022.06 1022.02 1022.18 1022.41 1022.46 1022.16 1021.29 1021.06 1021.22 1021.81 1022.32 1023.01 1024.09 1025.19 1025.61 1025.94 1025.95 1025.86 1025.18 1023.41 1022.65 1023.10 1023.33 1023.01 1023.66 1023.61 1022.90 1021.84 1020.43 1018.69 1019.34 1021.09 1021.96 1022.84 1023.40 1023.59 1023.58 1023.14 1022.59
1019.40 1021.22 1022.63 1022.69 1022.70 1022.62 1022.53 1022.60 1022.94 1022.89 1023.16 1022.74 1022.14 1021.70 1021.73 1022.40 1022.85 1023.38 1024.29 1025.25 1025.89 1026.17 1026.07 1026.29 1025.65 1024.21 1024.14 1024.54 1024.83 1024.85 1025.02 1025.09 1024.12 1022.96 1021.86 1021.71 1020.81 1021.67 1022.34 1023.10 1024.06 1024.42 1024.33 1024.06 1023.37
1019.25 1021.48 1022.66 1022.60 1022.34 1022.77 1023.23 1023.39 1023.58 1023.22 1022.98 1022.82 1022.43 1022.36 1022.69 1022.86 1023.44 1023.73 1024.83 1026.00 1026.25 1026.70 1026.63 1026.68 1026.02 1025.05 1024.98 1025.56 1025.10 1025.14 1025.50 1026.02 1025.72 1025.17 1023.24 1022.90 1021.15 1021.26 1022.18 1023.14 1023.93 1024.68 1024.82 1024.62 1024.57
1018.43 1020.88 1022.45 1022.45 1021.97 1021.90 1022.65 1023.20 1023.49 1023.28 1023.07 1022.76 1022.71 1022.85 1023.12 1023.39 1023.88 1024.34 1025.27 1026.33 1026.68 1026.95 1027.36 1027.16 1026.81 1026.05 1025.34 1025.44 1025.87 1025.87 1026.15 1026.60 1026.63 1025.66 1024.55 1023.45 1022.58 1022.04 1022.88 1023.65 1023.86 1024.38 1024.72 1024.45 1024.08
1016.99 1018.89 1019.37 1021.21 1021.52 1021.39 1021.82 1022.44 1022.83 1023.22 1023.29 1022.94 1022.88 1022.57 1022.81 1023.65 1024.20 1024.60 1025.37 1026.49 1027.11 1027.52 1027.72 1027.77 1027.25 1026.81 1025.88 1025.70 1025.99 1026.35 1026.46 1026.72 1027.00 1026.20 1025.68 1024.26 1024.16 1023.71 1024.03 1024.45 1024.61 1024.88 1024.90 1024.70 1023.90
1016.43 1018.19 1019.41 1020.08 1020.18 1021.03 1021.46 1022.06 1021.98 1022.57 1022.67 1022.49 1022.37 1022.32 1022.97 1023.40 1023.72 1024.32 1025.26 1026.02 1026.43 1027.85 1028.39 1028.71 1027.77 1027.26 1026.43 1026.14 1026.31 1026.66 1026.45 1026.45 1026.45 1026.45 1025.59 1024.91 1024.41 1024.12 1024.41 1024.62 1024.95 1025.26 1025.45 1025.14 1025.15
1016.45 1017.25 1017.32 1019.83 1020.24 1020.72 1020.76 1020.97 1021.29 1021.95 1022.51 1022.19 1022.12 1022.56 1023.41 1024.13 1024.36 1024.74 1025.55 1025.90 1026.46 1027.68 1028.60 1028.95 1028.35 1027.68 1026.31 1026.45 1026.92 1026.82 1026.21 1026.28 1026.14 1026.38 1025.95 1025.04 1024.72 1024.81 1024.60 1024.84 1025.25 1025.66 1025.90 1025.83 1025.35
Wind_Speed
9 9 9 9 7 6 5 4 3 2 3 4 5 7 8 7 10 13 13 16 13 14 15 4 6 5 1 3 4 4 4 6 10 13 15 15 18 18 17 17 17 15 23 24 26
9 9 9 9 7 6 4 4 4 3 4 4 5 7 8 6 9 13 16 17 13 12 11 12 10 7 4 3 2 4 5 10 10 10 14 16 13 15 11 18 19 26 26 25 26
9 9 9 10 8 6 5 4 4 5 4 4 6 8 4 6 7 9 21 17 12 8 4 5 4 5 3 2 7 6 6 8 9 11 14 16 9 11 10 15 21 26 29 31 31
10 10 10 10 9 8 6 5 5 6 5 5 8 8 4 7 3 12 19 14 11 9 8 6 11 5 5 6 5 6 4 8 8 9 14 7 8 16 5 19 25 19 23 22 29
8 10 10 10 10 9 8 6 5 6 7 7 9 8 6 2 7 14 14 7 6 4 9 10 13 8 8 8 8 5 9 8 7 10 4 3 10 15 18 22 22 17 21 20 19
7 8 11 10 11 9 9 8 6 5 6 8 9 8 6 2 6 14 11 5 6 5 8 10 8 9 6 7 5 11 11 10 5 12 1 10 4 15 20 23 19 20 19 20 18
7 8 9 10 11 10 11 8 7 6 6 7 9 6 7 6 4 12 7 5 4 5 8 8 8 9 11 7 5 8 10 4 3 13 8 13 2 17 19 23 21 21 17 18 19
7 8 8 10 11 11 12 7 6 6 6 5 7 6 3 2 6 14 11 3 3 2 5 7 6 5 8 11 7 7 3 8 6 10 7 12 11 16 19 24 23 23 20 21 20
9 9 10 10 10 11 10 4 2 2 1 2 7 6 3 3 8 15 10 8 5 0 3 4 3 2 8 15 6 3 12 11 7 5 4 11 8 12 20 23 23 22 21 21 24
8 9 11 10 10 10 9 5 2 3 4 3 3 5 3 5 5 13 7 8 3 3 4 5 6 8 12 11 7 15 17 12 12 7 6 8 6 17 19 21 18 20 19 19 20
6 8 10 11 9 7 2 4 3 4 7 6 5 3 3 7 4 15 11 8 3 2 5 2 10 15 16 10 10 18 14 15 14 5 6 6 8 14 16 18 20 21 19 19 21
5 7 9 8 3 4 2 3 4 5 1 3 3 3 3 4 3 18 15 2 5 7 7 3 12 14 13 6 14 13 12 13 10 2 7 9 7 7 16 18 16 20 21 24 26
4 7 8 7 2 1 5 4 5 7 3 2 3 4 4 6 6 13 12 4 5 6 6 11 9 11 14 8 16 12 9 15 14 17 8 14 4 9 15 17 19 21 21 22 23
4 5 8 3 2 1 3 3 5 6 2 5 2 4 3 2 2 7 7 4 2 6 3 5 10 10 14 12 16 13 17 16 13 9 5 12 5 13 21 21 28 26 25 25 27
4 1 7 2 5 2 1 3 3 3 5 4 3 3 3 2 4 9 7 2 5 5 5 5 13 12 13 12 13 9 24 12 10 7 10 9 6 10 22 27 31 29 25 23 23
3 3 1 1 4 2 4 4 3 2 7 4 2 1 2 5 4 4 7 5 2 3 5 4 3 4 10 16 3 19 14 10 9 5 4 6 4 12 16 22 25 23 24 24 24
8 10 5 3 3 6 4 2 5 3 1 3 2 2 4 4 3 7 4 11 6 3 5 3 3 3 16 13 6 21 15 2 4 2 4 5 5 4 15 18 16 19 22 22 21
13 4 9 6 4 5 1 3 4 1 0 1 1 4 1 3 3 3 1 4 9 5 3 6 2 11 11 10 10 10 8 5 7 7 9 2 5 5 14 18 15 14 17 21 22
12 2 3 4 5 2 2 3 5 0 1 4 2 4 3 3 1 1 5 3 5 6 4 4 3 2 5 5 12 8 7 3 6 6 6 3 3 6 19 22 24 21 20 22 22
5 3 1 3 3 0 3 3 3 1 1 1 4 1 4 3 4 2 1 3 1 4 1 3 3 3 3 4 7 7 7 1 2 6 7 2 2 8 22 23 24 23 21 21 21
4 4 2 1 1 2 2 4 4 2 2 2 1 2 1 3 2 3 3 3 1 1 3 1 2 3 3 8 9 7 5 6 3 3 5 7 4 7 11 15 18 19 19 20 21
4 4 1 2 2 1 3 3 4 3 1 1 2 1 2 3 3 3 3 2 2 2 1 3 3 2 5 3 2 3 5 6 5 5 1 4 3 5 5 12 15 15 17 17 19
4 4 2 3 4 3 2 3 3 5 5 5 3 1 0 3 2 4 4 4 3 1 1 2 2 2 4 3 4 2 3 4 3 4 3 4 4 6 14 16 15 14 16 16 16
6 5 1 1 0 5 6 5 6 1 3 2 4 3 4 3 2 5 5 3 3 1 4 1 2 3 4 3 2 4 3 4 5 5 6 7 14 16 19 19 19 16 15 17 16
2 3 4 6 5 5 3 8 10 7 4 6 4 7 5 4 3 4 5 5 5 2 2 1 2 1 6 4 4 7 7 5 4 7 5 8 11 16 14 15 14 14 15 18 19
7 6 2 3 9 9 7 9 13 6 11 5 5 11 7 3 1 8 7 6 3 4 2 1 1 1 3 1 2 10 11 9 8 11 12 11 13 9 12 13 13 14 15 17 18
2 1 5 6 5 5 7 9 13 11 3 2 8 8 7 5 9 11 6 7 6 6 4 2 1 3 0 2 5 8 7 10 4 7 7 7 6 13 15 15 14 12 13 15 17
Wind_Direction
357 359 360 4 7 13 354 341 329 343 337 336 335 332 332 321 275 39 22 344 332 336 297 343 35 63 171 76 359 307 295 349 350 330 326 336 331 331 329 302 310 334 322 312 311
352 352 352 352 356 0 348 330 319 321 323 327 326 324 317 303 251 29 2 349 344 344 19 16 14 343 69 27 28 337 303 7 338 327 326 326 337 339 334 323 332 317 313 313 303
345 345 346 345 344 348 339 319 311 313 337 348 338 334 318 274 250 17 356 344 339 319 8 341 356 327 35 23 2 7 328 337 318 320 324 309 333 335 301 336 331 320 319 309 293
338 341 342 340 337 341 337 316 305 298 312 334 336 334 277 225 359 5 343 331 313 301 3 355 9 15 358 10 6 295 360 323 308 321 313 357 306 332 286 346 328 334 315 314 340
334 334 337 337 338 337 335 318 304 287 293 308 318 325 265 71 17 344 339 325 276 329 22 3 20 346 12 341 323 266 333 303 306 308 90 276 3 354 1 343 331 345 326 337 346
325 332 334 334 334 327 328 318 308 312 309 309 311 313 252 84 352 350 344 329 360 353 26 17 7 347 301 308 295 332 303 282 287 338 16 289 296 15 352 346 346 337 339 343 353
317 327 327 326 327 320 321 306 281 296 307 308 312 289 56 75 340 2 0 1 344 15 27 14 350 2 332 332 336 297 294 261 310 347 13 319 60 8 354 351 351 346 350 347 348
304 315 319 322 324 324 324 310 271 285 290 291 298 261 46 70 330 9 360 75 70 71 21 7 324 327 359 284 242 288 242 327 23 345 30 324 6 3 -0 0 358 352 352 349 348
304 315 319 324 325 325 325 307 275 327 213 257 258 270 86 135 11 354 7 343 313 220 348 321 287 323 353 338 252 186 331 335 324 71 29 27 347 346 7 7 356 356 350 348 344
305 319 321 320 325 329 321 306 139 214 229 243 247 230 60 9 352 345 355 321 317 258 200 351 14 10 11 8 -0 319 319 315 324 336 297 315 349 17 13 3 356 354 350 350 343
304 315 316 318 328 330 280 238 235 169 43 42 29 5 30 348 271 17 344 300 242 94 14 33 16 16 355 350 320 304 297 296 338 39 315 300 302 8 19 2 1 2 356 352 342
299 308 309 318 340 351 325 284 28 357 134 64 80 78 22 336 325 13 343 313 24 46 357 230 31 358 333 345 334 318 310 337 308 350 298 301 324 23 18 8 14 5 358 353 348
283 301 316 304 289 345 63 47 341 348 255 121 49 33 358 330 37 359 359 342 5 53 24 51 354 332 339 352 350 343 347 328 302 310 290 303 135 6 24 5 12 17 2 358 356
261 307 325 208 199 53 58 352 354 332 284 133 137 64 344 350 56 10 4 334 68 42 1 45 5 345 344 6 354 316 359 317 293 301 334 32 307 43 6 359 8 10 4 356 352
225 207 37 298 104 69 54 320 309 252 306 77 92 357 39 25 339 34 16 330 46 27 282 60 359 349 353 349 329 286 321 301 285 300 303 9 293 21 4 360 359 359 360 356 348
241 221 280 30 63 28 322 323 243 316 252 129 113 83 177 37 50 340 17 54 357 345 27 50 53 332 342 316 355 322 324 265 255 286 235 343 313 46 12 355 348 352 355 356 346
96 76 63 39 66 347 2 259 65 194 35 133 118 117 89 40 49 12 54 42 27 346 31 187 52 48 1 346 7 354 358 293 224 258 343 334 340 40 11 9 358 352 350 353 351
113 92 60 61 13 1 54 72 151 283 50 29 103 118 126 9 63 15 158 74 53 356 25 342 148 15 360 28 323 354 353 8 308 350 332 325 2 53 13 11 2 7 354 353 356
95 40 64 23 25 26 125 114 199 158 85 163 178 222 152 146 227 241 51 54 33 16 32 331 116 41 21 5 3 347 28 302 289 221 258 7 106 149 6 2 357 359 356 356 356
116 98 66 352 27 35 79 186 132 67 130 72 241 283 201 139 193 137 76 83 113 31 68 77 278 40 351 245 56 41 346 273 221 329 316 24 169 344 347 351 351 351 352 350 353
98 142 62 337 223 47 178 151 126 100 340 225 283 206 42 149 150 118 124 139 178 60 60 110 290 41 238 23 8 6 25 338 269 328 323 316 73 349 347 352 348 348 344 346 349
135 146 62 276 109 0 155 94 32 121 218 217 289 39 195 154 118 130 151 74 120 130 110 76 323 332 56 45 358 11 21 3 315 18 306 280 334 299 327 6 357 348 342 345 344
103 105 75 283 172 175 126 92 175 158 183 183 171 334 305 155 132 135 138 102 133 259 30 75 130 262 176 192 175 330 20 11 268 247 264 317 38 329 360 351 358 349 345 342 343
124 125 123 228 355 143 152 166 162 149 132 124 130 129 156 130 37 152 143 158 137 101 66 181 299 308 342 326 343 284 311 352 320 275 345 287 319 337 342 344 343 350 345 342 344
123 159 171 171 218 162 163 142 157 168 247 190 174 216 165 134 118 173 145 148 189 111 84 32 269 230 290 286 245 269 265 267 236 282 266 350 313 318 336 335 338 342 343 345 347
131 149 54 89 126 131 165 199 176 162 169 204 220 170 164 156 214 182 151 185 176 141 89 50 145 260 267 183 282 278 273 272 250 268 265 275 290 358 335 335 341 345 346 341 347
108 48 108 150 149 149 197 171 186 149 207 10 171 131 158 104 87 90 81 91 112 146 137 197 169 253 175 25 329 259 228 208 211 244 269 262 3 327 327 334 337 341 342 341 339